DW5225 Weather Reports


Display with metric or nautical units.
time (UTC)temp
F
wind
direction
speed
MPH
gust
MPH
rain 1hr
in
rain 24hr
in
rain mn
in
humidity
%
barometer
mb
20260906003059 58 0 0.0 0.0 0.00 0.00 0.00 84 1029.1
20260906001549 58 0 0.0 0.0 0.00 0.00 0.00 83 1029.0
20260906000050 58 0 0.0 0.0 0.00 0.00 0.00 83 1029.0
20260905234544 58 0 0.0 0.0 0.00 0.00 0.00 83 1029.0
20260905233050 58 0 0.0 0.0 0.00 0.00 0.00 82 1028.9
20260905231548 58 0 0.0 0.0 0.00 0.00 0.00 82 1028.9
20260905230053 59 0 0.0 0.0 0.00 0.00 0.00 82 1028.9
20260905224548 58 0 0.0 0.0 0.00 0.00 0.00 81 1029.1
20260905223048 59 0 0.0 0.0 0.00 0.00 0.00 81 1028.9
20260905221604 59 0 0.0 0.0 0.00 0.00 0.00 81 1029.0
20260905220049 59 0 0.0 0.0 0.00 0.00 0.00 80 1029.0
20260905214547 60 0 0.0 0.0 0.00 0.00 0.00 80 1029.0
20260905213057 60 0 0.0 0.0 0.00 0.00 0.00 79 1028.8
20260905211550 60 0 0.0 0.0 0.00 0.00 0.00 79 1028.6
20260905210052 60 0 0.0 0.0 0.00 0.00 0.00 80 1028.8
20260905204547 61 0 0.0 0.0 0.00 0.00 0.00 79 1028.8
20260905203055 61 0 0.0 0.0 0.00 0.00 0.00 79 1028.9
20260905201609 61 0 0.0 0.0 0.00 0.00 0.00 78 1028.8
20260905200051 61 0 0.0 0.0 0.00 0.00 0.00 78 1028.9
20260905194549 62 0 0.0 0.0 0.00 0.00 0.00 78 1028.8
20260905193107 62 0 0.0 0.0 0.00 0.00 0.00 77 1028.5
20260905191549 62 0 0.0 0.0 0.00 0.00 0.00 77 1028.4
20260905190048 63 0 0.0 0.0 0.00 0.00 0.00 77 1028.3
20260905184557 63 0 0.0 0.0 0.00 0.00 0.00 77 1028.0
20260905183050 63 0 0.0 0.0 0.00 0.00 0.00 77 1027.8
20260905181605 63 0 0.0 0.0 0.00 0.00 0.00 77 1027.6
20260905180052 63 0 0.0 0.0 0.00 0.00 0.00 77 1027.4
20260905174556 64 0 0.0 0.0 0.00 0.00 0.00 76 1027.1
20260905173051 64 0 0.0 0.0 0.00 0.00 0.00 76 1026.9
20260905171545 64 0 0.0 3.0 0.00 0.00 0.00 76 1026.8
20260905170050 64 0 0.0 0.0 0.00 0.00 0.00 75 1026.7
20260905164546 65 0 0.0 3.0 0.00 0.00 0.00 74 1026.6
20260905163048 66 0 0.0 4.0 0.00 0.00 0.00 74 1026.4
20260905161600 66 0 0.0 6.0 0.00 0.00 0.00 71 1026.3
20260905160048 68 263 4.0 7.0 0.00 0.00 0.00 68 1026.2
20260905154547 68 270 2.0 8.0 0.00 0.00 0.00 69 1026.2
20260905153048 69 248 2.0 8.0 0.00 0.00 0.00 66 1026.1
20260905151601 70 267 5.0 8.0 0.00 0.00 0.00 63 1026.0
20260905150048 71 266 3.0 8.0 0.00 0.00 0.00 66 1026.0
20260905144549 70 291 2.0 8.0 0.00 0.00 0.00 67 1025.9
20260905143048 71 0 1.0 9.0 0.00 0.00 0.00 62 1025.7
20260905141541 71 286 3.0 8.0 0.00 0.00 0.00 65 1025.8
20260905140048 72 307 4.0 10.0 0.00 0.00 0.00 62 1025.5
20260905134549 71 274 2.0 6.0 0.00 0.00 0.00 64 1025.3
20260905133049 73 245 1.0 6.0 0.00 0.00 0.00 58 1025.2
20260905131551 73 0 1.0 9.0 0.00 0.00 0.00 57 1025.1
20260905130046 74 0 1.0 5.0 0.00 0.00 0.00 50 1025.1
20260905124552 74 0 0.0 4.0 0.00 0.00 0.00 51 1024.9
20260905123049 74 302 0.0 5.0 0.00 0.00 0.00 50 1025.0
20260905121545 72 360 2.0 8.0 0.00 0.00 0.00 51 1024.9
20260905120052 71 0 0.0 4.0 0.00 0.00 0.00 65 1025.0
20260905114550 71 0 0.0 3.0 0.00 0.00 0.00 63 1025.1
20260905113047 69 322 1.0 6.0 0.00 0.00 0.00 69 1025.2
20260905111554 67 0 0.0 0.0 0.00 0.00 0.00 72 1025.3
20260905110057 65 0 0.0 1.0 0.00 0.00 0.00 73 1025.5
20260905104603 64 0 0.0 0.0 0.00 0.00 0.00 76 1025.7
20260905103049 63 0 0.0 0.0 0.00 0.00 0.00 77 1025.7
20260905101546 62 0 0.0 0.0 0.00 0.00 0.00 76 1025.6
20260905100051 62 0 0.0 1.0 0.00 0.00 0.00 76 1025.8
20260905094549 61 0 0.0 0.0 0.00 0.00 0.00 77 1025.7
20260905093045 62 0 0.0 0.0 0.00 0.00 0.00 77 1025.7
20260905091607 62 0 0.0 0.0 0.00 0.00 0.00 77 1025.4
20260905090048 62 0 0.0 0.0 0.00 0.00 0.00 76 1025.5
20260905084607 62 0 0.0 1.0 0.00 0.00 0.00 76 1025.2
20260905083052 62 0 0.0 0.0 0.00 0.00 0.00 77 1025.1
20260905081550 62 0 0.0 0.0 0.00 0.00 0.00 77 1024.7
20260905080049 61 0 0.0 1.0 0.00 0.00 0.00 79 1024.8
20260905074551 61 0 0.0 0.0 0.00 0.00 0.00 80 1024.6
20260905073052 61 0 0.0 1.0 0.00 0.00 0.00 81 1024.3
20260905071549 61 0 0.0 0.0 0.00 0.00 0.00 80 1024.5
20260905070106 61 0 0.0 6.0 0.00 0.00 0.00 80 1024.0
20260905064549 62 0 0.0 6.0 0.00 0.00 0.00 77 1023.7
20260905063051 63 0 0.0 6.0 0.00 0.00 0.00 73 1023.1
20260905061604 64 0 0.0 0.0 0.00 0.00 0.00 71 1023.0
20260905060049 64 0 0.0 0.0 0.00 0.00 0.00 70 1022.7
20260905054551 64 0 0.0 0.0 0.00 0.00 0.00 69 1022.8
20260905053051 65 0 0.0 0.0 0.00 0.00 0.00 68 1022.6
20260905051550 65 0 0.0 0.0 0.00 0.00 0.00 66 1022.2
20260905050049 65 0 0.0 2.0 0.00 0.00 0.00 67 1022.0
20260905044544 64 0 0.0 0.0 0.00 0.00 0.00 70 1022.0
20260905043051 64 0 0.0 0.0 0.00 0.00 0.00 69 1021.9
20260905041555 64 0 0.0 0.0 0.00 0.00 0.00 69 1021.8
20260905040054 65 0 0.0 0.0 0.00 0.00 0.00 68 1021.9
20260905034547 65 0 0.0 0.0 0.00 0.00 0.00 67 1022.2
20260905033054 66 0 0.0 0.0 0.00 0.00 0.00 64 1021.8
20260905031550 66 0 0.0 0.0 0.00 0.00 0.00 65 1022.1
20260905030049 66 0 0.0 0.0 0.00 0.00 0.00 65 1022.1
20260905024551 66 0 0.0 0.0 0.00 0.00 0.00 67 1022.2
20260905023049 66 0 0.0 0.0 0.00 0.00 0.00 66 1022.2
20260905021549 67 0 0.0 0.0 0.00 0.00 0.00 66 1022.3
20260905020051 67 0 0.0 0.0 0.00 0.00 0.00 66 1022.2
20260905014551 67 0 0.0 0.0 0.00 0.00 0.00 66 1022.3
20260905013049 67 0 0.0 0.0 0.00 0.00 0.00 66 1022.2
20260905011548 67 0 0.0 0.0 0.00 0.00 0.00 66 1022.2
20260905010057 67 0 0.0 1.0 0.00 0.00 0.00 66 1022.2
20260905004553 67 0 0.0 0.0 0.00 0.00 0.00 65 1022.0